GW0890 Weather Reports


time (UTC)temp
C
wind
direction
speed
KPH
gust
KPH
rain 1hr
cm
rain 24hr
cm
rain mn
cm
humidity
%
barometer
mb
20260506170057 12 161 0.0 4.8 0.00 0.94 0.94 96 1010.1
20260506164542 12 141 1.6 9.7 0.00 0.94 0.94 95 1010.0
20260506163101 12 140 0.0 8.0 0.00 0.94 0.94 96 1009.9
20260506161541 12 156 0.0 14.5 0.00 0.94 0.94 95 1009.9
20260506160034 12 142 6.4 14.5 0.00 0.94 0.94 95 1009.7
20260506154530 12 113 0.0 14.5 0.00 0.94 0.94 96 1009.5
20260506153028 12 170 6.4 14.5 0.03 0.94 0.94 95 1009.1
20260506151526 12 175 6.4 11.3 0.03 0.94 0.94 95 1009.1
20260506150026 13 174 4.8 16.1 0.03 0.94 0.94 96 1008.7
20260506144520 14 159 12.9 20.9 0.05 0.94 0.94 95 1008.4
20260506143016 15 108 3.2 9.7 0.03 0.91 0.91 97 1007.8
20260506141514 15 96 6.4 12.9 0.03 0.91 0.91 97 1007.8
20260506140013 15 67 8.0 12.9 0.03 0.91 0.91 97 1007.6
20260506134510 15 65 6.4 12.9 0.00 0.89 0.89 97 1007.6
20260506133007 15 65 1.6 9.7 0.00 0.89 0.89 97 1007.2
20260506131508 15 92 0.0 6.4 0.00 0.89 0.89 97 1006.9
20260506130035 15 93 1.6 4.8 0.00 0.89 0.89 96 1006.5
20260506124533 15 97 0.0 0.0 0.00 0.89 0.89 96 1006.5
20260506123003 15 97 0.0 0.0 0.03 0.89 0.89 96 1006.5
20260506121502 15 97 0.0 0.0 0.03 0.89 0.89 96 1006.2
20260506120031 14 97 0.0 0.0 0.05 0.89 0.89 96 1006.1
20260506114539 14 97 0.0 0.0 0.10 0.89 0.89 96 1006.0
20260506113028 14 98 0.0 0.0 0.10 0.86 0.86 96 1005.5
20260506111530 14 108 0.0 0.0 0.10 0.86 0.86 95 1005.5
20260506110029 14 108 0.0 0.0 0.08 0.84 0.84 95 1005.7
20260506104526 14 108 0.0 8.0 0.03 0.79 0.79 95 1005.6
20260506103024 15 117 1.6 6.4 0.03 0.76 0.76 95 1005.5
20260506101526 15 150 3.2 9.7 0.10 0.76 0.76 94 1005.1
20260506100022 15 106 1.6 8.0 0.18 0.76 0.76 94 1004.7
20260506094522 15 56 0.0 3.2 0.23 0.76 0.76 93 1004.2
20260506093018 15 57 1.6 6.4 0.20 0.71 0.71 93 1004.5
20260506091517 15 5 6.4 11.3 0.10 0.64 0.64 92 1004.5
20260506090015 15 81 3.2 11.3 0.10 0.58 0.58 92 1004.7
20260506084516 15 298 6.4 14.5 0.30 0.53 0.53 92 1004.5
20260506083012 15 301 9.7 14.5 0.38 0.53 0.53 92 1004.4
20260506081509 15 285 8.0 19.3 0.38 0.53 0.53 91 1004.6
20260506073002 15 308 3.2 12.9 0.08 0.15 0.15 92 1004.8
20260506071600 14 311 4.8 14.5 0.10 0.15 0.15 94 1004.9
20260506070103 14 348 0.0 0.0 0.10 0.13 0.13 95 1005.2
20260506061549 14 46 0.0 0.0 0.05 0.05 0.05 94 1006.2
20260506044544 15 44 0.0 8.0 0.00 0.00 0.00 88 1005.7
20260506043033 16 15 1.6 8.0 0.00 0.00 0.00 85 1005.8
20260506041529 15 58 6.4 19.3 0.00 0.00 0.00 87 1006.1
20260506040048 15 250 0.0 9.7 0.00 0.00 0.00 91 1006.2
20260506034525 15 260 1.6 12.9 0.00 0.00 0.00 89 1006.1
20260506033019 16 207 1.6 9.7 0.00 0.00 0.00 84 1006.4
20260506031533 16 237 1.6 6.4 0.00 0.00 0.00 80 1006.4
20260506030014 16 222 0.0 3.2 0.00 0.00 0.00 76 1006.4
20260506024519 17 222 0.0 6.4 0.00 0.00 0.00 75 1006.5
20260506023012 17 194 4.8 8.0 0.00 0.00 0.00 73 1006.6
20260506021511 17 94 0.0 3.2 0.00 0.00 0.00 70 1006.6
20260506020010 17 94 0.0 3.2 0.00 0.00 0.00 70 1006.5
20260506020008 17 93 0.0 3.2 0.00 0.00 0.00 70 1006.5
20260506014511 18 92 0.0 0.0 0.00 0.00 0.00 69 1006.2
20260506013005 18 90 0.0 3.2 0.00 0.00 0.00 66 1006.4
20260506011502 18 90 0.0 0.0 0.00 0.00 0.00 64 1006.4
20260506010000 19 90 0.0 3.2 0.00 0.00 0.00 63 1006.5
20260506004501 20 83 1.6 4.8 0.00 0.00 0.00 60 1006.4
20260506003100 21 78 3.2 4.8 0.00 0.00 0.00 56 1006.5
20260506003004 21 76 1.6 4.8 0.00 0.00 0.00 56 1006.5
20260506001557 21 74 0.0 3.2 0.00 0.00 0.00 47 1006.7
20260506000101 22 75 1.6 8.0 0.00 0.00 0.00 47 1006.8
20260505234603 22 76 4.8 9.7 0.00 0.00 0.00 46 1007.0
20260505233109 22 46 6.4 12.9 0.00 0.00 0.00 46 1007.1
20260505231555 22 61 6.4 20.9 0.00 0.00 0.00 46 1007.1
20260505230052 22 45 9.7 14.5 0.00 0.00 0.00 46 1007.3
20260505224552 22 46 9.7 17.7 0.00 0.00 0.00 46 1007.3
20260505223054 23 40 6.4 19.3 0.00 0.00 0.00 46 1007.2
20260505221520 23 16 9.7 30.6 0.00 0.00 0.00 45 1007.2
20260505220018 23 22 17.7 25.7 0.00 0.00 0.00 46 1007.2
20260505214514 23 5 8.0 14.5 0.00 0.00 0.00 48 1007.2
20260505213012 23 23 11.3 25.7 0.00 0.00 0.00 48 1007.2
20260505211512 23 349 11.3 19.3 0.00 0.00 0.00 49 1007.3
20260505210010 23 335 6.4 17.7 0.00 0.00 0.00 50 1007.4
20260505204507 23 44 8.0 24.1 0.00 0.00 0.00 49 1007.5
20260505203006 23 60 11.3 16.1 0.00 0.00 0.00 49 1007.8
20260505201505 23 52 14.5 20.9 0.00 0.00 0.00 49 1007.8
20260505200004 23 48 9.7 22.5 0.00 0.00 0.00 50 1007.9
20260505194501 23 329 8.0 19.3 0.00 0.00 0.00 50 1008.1
20260505193100 23 46 14.5 24.1 0.00 0.00 0.00 49 1008.6
20260505191600 23 24 9.7 22.5 0.00 0.00 0.00 50 1008.8
20260505190059 23 67 12.9 20.9 0.00 0.03 0.00 48 1008.9
20260505184556 23 44 12.9 30.6 0.00 0.03 0.00 50 1009.1
20260505183053 23 11 14.5 30.6 0.00 0.03 0.00 50 1009.3
20260505181557 23 71 11.3 25.7 0.00 0.03 0.00 50 1009.6
20260505180051 23 22 16.1 30.6 0.00 0.03 0.00 48 1009.5
20260505174555 22 30 19.3 33.8 0.00 0.03 0.00 50 1009.7
20260505173048 22 37 16.1 30.6 0.00 0.03 0.00 52 1009.9
20260505171551 23 360 11.3 30.6 0.00 0.03 0.00 51 1009.8